Weather History for Topeka Forbes, KS

Change the Weather History Date:

Thursday, April 11, 2013

  Actual Average Record
Temperature  
Mean Temperature 38 °F -  
Max Temperature 44 °F 66 °F 85 °F (1971)
Min Temperature 33 °F 42 °F 25 °F (2004)
Degree Days  
Heating Degree Days 27    
Moisture  
Dew Point 28 °F    
Average Humidity 73    
Maximum Humidity 92    
Minimum Humidity 53    
Precipitation  
Precipitation 0.00 in - - ()
Sea Level Pressure  
Sea Level Pressure 29.79 in    
Wind  
Wind Speed 14 mph (WNW)    
Max Wind Speed 24 mph    
Max Gust Speed 31 mph    
Visibility 10 miles    
Events      
Averages and records for this station are not official NWS values.
T = Trace of Precipitation, MM = Missing Value Source: NWS Daily Summary

Daily Weather History Graph

Daily Weather History Graph

Search for Another Location

Airport:

Trip Planner

Search our weather history database for the weather conditions in past years. The results will help you decide how hot, cold, wet, or windy it might be!

Date:

Astronomy

Apr. 11, 2013 Rise Set
Actual Time 6:51 AM CDT 7:56 PM CDT
Civil Twilight 6:24 AM CDT 8:23 PM CDT
Nautical Twilight 5:51 AM CDT 8:56 PM CDT
Astronomical Twilight 5:17 AM CDT 9:30 PM CDT
Moon 7:24 AM CDT (4/11) 9:30 PM CDT (4/11)
Length of Visible Light 13h 59m
Length of Day
13h 04m
New Moon, 2% of the Moon is Illuminated
Apr 11
New Moon
Apr 18
First Quarter
Apr 25
Full
May 2
Last Quarter
May 9
New

Hourly Weather History & Observations

Time (CDT) Temp. Windchill Dew Point Humidity Pressure Visibility Wind Dir Wind Speed Gust Speed Precip Events Conditions
12:53 AM 34.0 °F 23.8 °F 32.0 °F 92% 29.86 in 8.0 mi WNW 16.1 mph - N/A   Overcast
1:53 AM 34.0 °F 23.8 °F 30.9 °F 89% 29.86 in 10.0 mi WNW 16.1 mph - N/A   Overcast
2:53 AM 34.0 °F 25.0 °F 30.9 °F 89% 29.80 in 10.0 mi WNW 12.7 mph 20.7 mph N/A   Overcast
3:53 AM 34.0 °F 26.0 °F 30.9 °F 89% 29.79 in 10.0 mi WNW 10.4 mph - N/A   Overcast
4:02 AM 33.8 °F 23.9 °F 30.2 °F 87% 29.78 in 10.0 mi West 15.0 mph - N/A   Overcast
4:19 AM 33.8 °F 25.8 °F 30.2 °F 87% 29.78 in 10.0 mi WNW 10.4 mph - N/A   Overcast
4:53 AM 33.1 °F 23.4 °F 30.0 °F 89% 29.79 in 10.0 mi WNW 13.8 mph - N/A   Overcast
5:53 AM 33.1 °F 23.4 °F 30.0 °F 89% 29.80 in 10.0 mi West 13.8 mph - N/A   Overcast
6:24 AM 33.8 °F 25.3 °F 28.4 °F 81% 29.77 in 10.0 mi West 11.5 mph - N/A   Overcast
6:53 AM 33.1 °F 23.9 °F 28.9 °F 85% 29.81 in 10.0 mi West 12.7 mph - N/A   Overcast
7:53 AM 33.1 °F 24.9 °F 27.0 °F 78% 29.80 in 10.0 mi West 10.4 mph - N/A   Overcast
8:53 AM 33.1 °F 24.4 °F 26.1 °F 75% 29.81 in 10.0 mi West 11.5 mph - N/A   Overcast
9:53 AM 34.0 °F 24.2 °F 26.1 °F 73% 29.80 in 10.0 mi West 15.0 mph - N/A   Overcast
10:53 AM 35.1 °F 25.2 °F 26.1 °F 70% 29.79 in 10.0 mi West 16.1 mph - N/A   Overcast
12:53 PM 39.0 °F 29.9 °F 26.1 °F 60% 29.78 in 10.0 mi WSW 17.3 mph 25.3 mph N/A   Overcast
1:00 PM 39.2 °F 30.8 °F 26.6 °F 61% 29.76 in 10.0 mi West 15.0 mph 24.2 mph N/A   Overcast
1:53 PM 39.0 °F 29.9 °F 26.1 °F 60% 29.78 in 10.0 mi West 17.3 mph 24.2 mph N/A   Overcast
2:53 PM 41.0 °F 33.9 °F 27.0 °F 57% 29.76 in 10.0 mi WNW 12.7 mph 25.3 mph N/A   Overcast
3:53 PM 43.0 °F 34.2 °F 27.0 °F 53% 29.74 in 10.0 mi West 20.7 mph 28.8 mph N/A   Mostly Cloudy
4:53 PM 43.0 °F 33.5 °F 27.0 °F 53% 29.74 in 10.0 mi WNW 24.2 mph 31.1 mph N/A   Overcast
5:53 PM 41.0 °F 31.9 °F 26.1 °F 55% 29.75 in 10.0 mi WNW 19.6 mph 26.5 mph N/A   Mostly Cloudy
6:53 PM 39.9 °F 32.5 °F 27.0 °F 60% 29.76 in 10.0 mi WNW 12.7 mph 20.7 mph N/A   Overcast
7:53 PM 39.0 °F 31.8 °F 26.1 °F 60% 29.78 in 10.0 mi WNW 11.5 mph - N/A   Overcast
8:53 PM 37.9 °F 32.7 °F 26.1 °F 62% 29.80 in 10.0 mi WNW 6.9 mph - N/A   Overcast
9:53 PM 37.0 °F 29.3 °F 26.1 °F 65% 29.82 in 10.0 mi WNW 11.5 mph - N/A   Mostly Cloudy
10:53 PM 35.1 °F 28.6 °F 26.1 °F 70% 29.82 in 10.0 mi West 8.1 mph - N/A   Scattered Clouds
11:53 PM 33.1 °F 25.5 °F 26.1 °F 75% 29.82 in 10.0 mi West 9.2 mph - N/A   Clear